CW9203 Weather Reports


Display with metric or nautical units.
time (UTC)temp
F
wind
direction
speed
MPH
gust
MPH
rain 1hr
in
rain 24hr
in
rain mn
in
humidity
%
barometer
mb
20260904010305 63 247 12.0 24.0 0.01 0.16 0.02 4 1014.8
20260904005806 63 249 14.0 28.0 0.01 0.16 0.02 4 1015.0
20260904005306 63 247 13.0 22.0 0.02 0.16 0.02 4 1015.1
20260904003804 64 261 8.0 17.0 0.01 0.15 0.01 4 1015.1
20260904003305 64 259 11.0 20.0 0.01 0.15 0.01 4 1015.2
20260904002805 64 264 10.0 18.0 0.01 0.15 0.01 4 1015.3
20260904001305 63 267 9.0 22.0 0.01 0.15 0.01 4 1015.5
20260903234805 62 271 16.0 28.0 0.00 0.14 0.00 4 1015.9
20260903233306 61 263 9.0 20.0 0.00 0.14 0.00 5 1016.1
20260903232804 61 260 14.0 23.0 0.00 0.14 0.00 6 1016.2
20260903232306 61 250 10.0 21.0 0.00 0.14 0.00 4 1016.3
20260903231305 61 265 10.0 18.0 0.00 0.14 0.00 8 1016.3
20260903225806 61 249 12.0 23.0 0.00 0.14 0.00 10 1016.3
20260903225306 61 258 10.0 20.0 0.00 0.14 0.00 8 1016.3
20260903224805 61 269 13.0 20.0 0.00 0.14 0.00 6 1016.1
20260903224306 61 264 7.0 20.0 0.00 0.14 0.00 4 1016.1
20260903223307 61 258 9.0 16.0 0.00 0.14 0.00 4 1016.2
20260903222805 61 255 8.0 16.0 0.00 0.14 0.00 4 1016.3
20260903221307 61 260 8.0 20.0 0.00 0.14 0.00 4 1016.5
20260903215804 61 254 11.0 16.0 0.00 0.14 0.00 4 1016.6
20260903215306 62 274 8.0 17.0 0.00 0.14 0.00 4 1016.7
20260903213805 61 253 8.0 18.0 0.00 0.14 0.00 4 1017.0
20260903212805 61 248 9.0 17.0 0.00 0.14 0.00 4 1016.9
20260903212307 61 268 7.0 16.0 0.00 0.14 0.00 4 1016.9
20260903211804 61 280 6.0 13.0 0.00 0.14 0.00 4 1017.1
20260903210805 61 265 9.0 15.0 0.00 0.14 0.00 4 1017.4
20260903205805 61 257 7.0 12.0 0.00 0.14 0.00 4 1017.4
20260903205306 61 269 9.0 14.0 0.00 0.14 0.00 4 1017.3
20260903204804 61 264 7.0 12.0 0.00 0.14 0.00 4 1017.4
20260903204305 61 273 10.0 18.0 0.00 0.14 0.00 4 1017.5
20260903203306 61 275 7.0 15.0 0.00 0.14 0.00 4 1017.6
20260903202804 61 280 5.0 13.0 0.00 0.14 0.00 4 1017.7
20260903201804 61 270 6.0 14.0 0.00 0.14 0.00 4 1017.8
20260903201305 61 277 6.0 12.0 0.00 0.14 0.00 4 1017.8
20260903200305 60 287 4.0 12.0 0.00 0.14 0.00 4 1017.9
20260903195804 59 268 2.0 5.0 0.00 0.14 0.00 4 1018.0
20260903192306 59 275 3.0 7.0 0.00 0.14 0.00 4 1018.1
20260903191805 59 282 2.0 6.0 0.00 0.14 0.00 4 1018.0
20260903191307 59 289 4.0 10.0 0.00 0.14 0.00 4 1018.0
20260903190805 59 284 4.0 9.0 0.00 0.14 0.00 4 1018.0
20260903190306 59 294 2.0 6.0 0.00 0.14 0.00 4 1018.0
20260903185306 59 276 5.0 12.0 0.00 0.14 0.00 4 1018.0
20260903184806 59 278 3.0 6.0 0.00 0.14 0.00 4 1018.0
20260903184305 59 268 4.0 10.0 0.00 0.14 0.00 4 1018.0
20260903183806 59 289 3.0 9.0 0.00 0.14 0.00 4 1018.0
20260903183304 59 256 6.0 12.0 0.00 0.14 0.00 4 1018.1
20260903182804 59 289 4.0 7.0 0.00 0.14 0.00 4 1018.2
20260903181805 59 267 5.0 8.0 0.00 0.14 0.00 4 1018.2
20260903180806 59 256 6.0 10.0 0.00 0.14 0.00 4 1018.3
20260903175804 59 271 4.0 10.0 0.00 0.14 0.00 4 1018.3
20260903175306 59 268 3.0 10.0 0.00 0.14 0.00 4 1018.3
20260903173807 59 265 5.0 7.0 0.00 0.14 0.00 4 1018.3
20260903172306 59 292 3.0 8.0 0.00 0.14 0.00 4 1018.3
20260903171806 59 295 3.0 9.0 0.00 0.14 0.00 4 1018.3
20260903171307 59 269 5.0 9.0 0.00 0.14 0.00 4 1018.2
20260903165805 59 255 6.0 9.0 0.00 0.15 0.00 4 1018.4
20260903165306 59 280 4.0 10.0 0.00 0.15 0.00 4 1018.2
20260903163805 59 266 6.0 12.0 0.00 0.15 0.00 4 1018.3
20260903161306 59 258 4.0 10.0 0.00 0.15 0.00 4 1018.6
20260903160805 59 250 5.0 10.0 0.00 0.15 0.00 4 1018.6
20260903160305 59 267 6.0 10.0 0.00 0.15 0.00 4 1018.6
20260903155306 58 262 6.0 12.0 0.00 0.16 0.00 4 1018.5
20260903154805 58 275 6.0 13.0 0.00 0.16 0.00 4 1018.5
20260903153805 58 253 7.0 15.0 0.00 0.16 0.00 4 1018.5
20260903153306 58 259 7.0 12.0 0.00 0.16 0.00 4 1018.5
20260903152806 58 250 6.0 13.0 0.00 0.16 0.00 4 1018.4
20260903152306 58 265 7.0 12.0 0.00 0.16 0.00 4 1018.5
20260903150306 58 269 6.0 12.0 0.00 0.16 0.00 4 1018.8
20260903145807 58 269 5.0 13.0 0.00 0.16 0.00 4 1018.8
20260903144806 58 250 6.0 10.0 0.00 0.16 0.00 4 1018.9
20260903143305 58 248 6.0 10.0 0.00 0.16 0.00 4 1019.1
20260903142807 58 255 4.0 10.0 0.00 0.16 0.00 4 1019.2
20260903142306 58 262 5.0 10.0 0.00 0.16 0.00 4 1019.3
20260903141805 58 250 5.0 7.0 0.00 0.16 0.00 4 1019.4
20260903140306 57 270 6.0 10.0 0.00 0.16 0.00 4 1019.5
20260903135306 57 256 5.0 9.0 0.00 0.16 0.00 4 1019.6
20260903134805 58 250 6.0 10.0 0.00 0.16 0.00 4 1019.6
20260903134304 58 276 6.0 12.0 0.00 0.16 0.00 4 1019.6
20260903133806 58 251 6.0 12.0 0.00 0.16 0.00 4 1019.6
20260903132804 58 268 7.0 13.0 0.00 0.16 0.00 4 1019.7
20260903131805 58 263 5.0 13.0 0.00 0.16 0.00 4 1019.8
20260903131307 58 269 8.0 13.0 0.00 0.16 0.00 4 1019.8
20260903130305 58 264 7.0 14.0 0.00 0.16 0.00 4 1019.8
20260903124806 58 266 6.0 9.0 0.00 0.16 0.00 4 1019.7
20260903124305 58 283 6.0 12.0 0.00 0.16 0.00 4 1019.7
20260903122805 58 274 6.0 10.0 0.00 0.16 0.00 4 1019.7
20260903115307 58 262 5.0 9.0 0.00 0.16 0.16 4 1019.7
20260903114807 58 266 6.0 12.0 0.00 0.16 0.16 4 1019.7
20260903113804 58 270 5.0 10.0 0.00 0.16 0.16 4 1019.7
20260903113307 58 270 5.0 10.0 0.00 0.16 0.16 4 1019.8
20260903111805 58 277 2.0 5.0 0.00 0.16 0.16 4 1019.9
20260903111305 58 262 3.0 9.0 0.00 0.16 0.16 4 1020.0
20260903110305 58 258 5.0 12.0 0.00 0.16 0.16 4 1020.0
20260903105804 58 255 6.0 10.0 0.00 0.16 0.16 4 1020.0
20260903104305 59 280 5.0 10.0 0.00 0.16 0.16 4 1020.1
20260903103305 59 275 5.0 9.0 0.00 0.16 0.16 4 1020.1
20260903102806 59 256 5.0 10.0 0.00 0.16 0.16 4 1020.1
20260903102306 59 244 5.0 12.0 0.00 0.16 0.16 4 1020.2
20260903101804 59 249 5.0 10.0 0.00 0.16 0.16 4 1020.3
20260903101304 59 260 5.0 10.0 0.00 0.16 0.16 4 1020.3
20260903095805 59 256 5.0 10.0 0.01 0.16 0.16 4 1020.4
20260903094807 59 256 5.0 13.0 0.01 0.16 0.16 4 1020.4
20260903093806 59 265 4.0 9.0 0.02 0.16 0.16 4 1020.3
20260903093305 59 261 5.0 8.0 0.02 0.16 0.16 4 1020.3
20260903091807 59 249 3.0 9.0 0.06 0.17 0.16 4 1020.1
20260903091304 58 252 5.0 10.0 0.06 0.17 0.16 4 1020.1
20260903090804 58 262 3.0 8.0 0.06 0.17 0.16 4 1020.1
20260903090307 58 244 3.0 7.0 0.06 0.16 0.15 4 1020.1
20260903084805 58 253 5.0 8.0 0.06 0.16 0.15 4 1020.0
20260903081805 58 274 2.0 8.0 0.02 0.10 0.09 4 1020.1
20260903080304 58 278 3.0 7.0 0.01 0.09 0.09 4 1019.9
20260903075306 58 270 3.0 6.0 0.01 0.09 0.09 4 1020.0
20260903074804 58 253 4.0 8.0 0.01 0.09 0.09 4 1020.0
20260903072805 59 278 6.0 12.0 0.02 0.09 0.08 4 1019.9
20260903071807 59 276 4.0 12.0 0.06 0.09 0.08 4 1019.8
20260903071305 59 268 4.0 9.0 0.06 0.09 0.08 4 1019.8
20260903070805 59 259 5.0 10.0 0.06 0.09 0.08 4 1019.8
20260903065805 59 267 5.0 14.0 0.06 0.09 0.08 4 1019.7
20260903065306 59 271 2.0 6.0 0.06 0.09 0.08 4 1019.7
20260903064805 59 252 3.0 7.0 0.06 0.09 0.08 4 1019.7
20260903064305 59 242 2.0 10.0 0.06 0.09 0.08 4 1019.8
20260903063804 60 230 6.0 12.0 0.04 0.06 0.06 4 1019.6
20260903063306 60 268 3.0 5.0 0.04 0.06 0.06 4 1019.5
20260903062804 60 273 4.0 7.0 0.04 0.06 0.06 4 1019.5
20260903062306 60 279 4.0 8.0 0.02 0.05 0.04 4 1019.6
20260903061806 60 278 6.0 12.0 0.00 0.02 0.02 4 1019.6
20260903060804 61 267 5.0 12.0 0.00 0.02 0.02 4 1019.5
20260903060305 61 264 6.0 12.0 0.00 0.02 0.02 4 1019.5
20260903055804 60 243 6.0 12.0 0.00 0.02 0.02 4 1019.5
20260903055307 60 260 5.0 17.0 0.00 0.02 0.02 4 1019.4
20260903054804 60 267 6.0 10.0 0.00 0.02 0.02 4 1019.4
20260903054307 60 282 6.0 10.0 0.00 0.02 0.02 4 1019.4
20260903052307 59 267 6.0 13.0 0.00 0.02 0.02 16 1019.5
20260903050304 59 272 5.0 13.0 0.00 0.02 0.02 32 1019.5
20260903045805 59 257 7.0 13.0 0.00 0.02 0.02 35 1019.5
20260903044305 59 248 10.0 15.0 0.00 0.02 0.02 45 1019.5
20260903042306 60 270 5.0 12.0 0.00 0.02 0.02 57 1019.6
20260903041806 60 255 5.0 12.0 0.00 0.02 0.02 60 1019.6
20260903041304 61 263 6.0 14.0 0.00 0.02 0.02 62 1019.6
20260903035806 61 261 7.0 16.0 0.00 0.02 0.02 64 1019.6
20260903033805 62 268 9.0 16.0 0.00 0.02 0.02 64 1019.8
20260903033305 62 263 8.0 18.0 0.00 0.02 0.02 64 1019.8
20260903031804 63 258 6.0 12.0 0.00 0.02 0.02 64 1019.9
20260903031305 63 259 8.0 13.0 0.00 0.02 0.02 63 1019.9
20260903030804 63 244 8.0 17.0 0.00 0.02 0.02 63 1020.0
20260903025804 63 271 7.0 16.0 0.00 0.02 0.02 63 1019.9
20260903024805 63 255 7.0 17.0 0.00 0.02 0.02 64 1020.0
20260903024305 63 274 8.0 17.0 0.00 0.02 0.02 64 1020.0
20260903023307 63 257 8.0 15.0 0.00 0.02 0.02 64 1020.0
20260903022804 63 240 6.0 12.0 0.00 0.02 0.02 64 1020.0
20260903021805 63 246 5.0 10.0 0.00 0.02 0.02 64 1020.1
20260903020805 63 256 7.0 15.0 0.00 0.02 0.02 64 1020.3
20260903020306 63 239 9.0 15.0 0.00 0.02 0.02 64 1020.3
20260903015306 64 250 9.0 15.0 0.00 0.02 0.02 63 1020.4
20260903014804 64 247 8.0 15.0 0.00 0.02 0.02 64 1020.5
20260903013805 64 247 7.0 16.0 0.00 0.02 0.02 63 1020.6
20260903012805 64 243 6.0 13.0 0.00 0.02 0.02 62 1020.5
20260903011805 64 248 7.0 13.0 0.00 0.02 0.02 62 1020.7
20260903011307 64 253 7.0 13.0 0.00 0.02 0.02 62 1020.8
20260903010804 63 246 5.0 12.0 0.00 0.02 0.02 64 1020.8